Change the Weather History Date:

Friday, March 28, 2014

  Actual Average Record
Temperature  
Mean Temperature 35 °F -  
Max Temperature 42 °F 38 °F 55 °F (2012)
Min Temperature 28 °F 27 °F 12 °F (1967)
Degree Days  
Heating Degree Days 30    
Moisture  
Dew Point -1 °F    
Average Humidity 22    
Maximum Humidity 28    
Minimum Humidity 17    
Precipitation  
Precipitation 0.00 in - - ()
Sea Level Pressure  
Sea Level Pressure 29.85 in    
Wind  
Wind Speed 16 mph (NNE)    
Max Wind Speed 26 mph    
Max Gust Speed 36 mph    
Visibility 10 miles    
Events      
Averages and records for this station are not official NWS values.
T = Trace of Precipitation, MM = Missing Value Source: NWS Daily Summary

Daily Weather History Graph

Daily Weather History Graph

Search for Another Location

Airport or City:

Trip Planner

Search our weather history database for the weather conditions in past years. The results will help you decide how hot, cold, wet, or windy it might be!

Date:

Astronomy

Mar. 28, 2014 Rise Set
Actual Time 6:38 AM AKDT 7:35 PM AKDT
Civil Twilight 5:57 AM AKDT 8:17 PM AKDT
Nautical Twilight 5:06 AM AKDT 9:08 PM AKDT
Astronomical Twilight 4:08 AM AKDT 10:06 PM AKDT
Moon 5:44 AM AKDT (3/28) 5:17 PM AKDT (3/28)
Length of Visible Light 14h 20m
Length of Day
12h 56m
Waning Crescent, 5% of the Moon is Illuminated
Mar 28
Waning Crescent
Mar 30
New
Apr 7
First Quarter
Apr 14
Full
Apr 21
Last Quarter

Hourly Weather History & Observations

Time (AKDT) Temp. Windchill Dew Point Humidity Pressure Visibility Wind Dir Wind Speed Gust Speed Precip Events Conditions
12:53 AM 30.9 °F 23.5 °F 1.0 °F 28% 29.92 in 10.0 mi NNE 8.1 mph - N/A   Clear
1:53 AM 32.0 °F 20.8 °F -0.0 °F 26% 29.92 in 10.0 mi NNE 17.3 mph - N/A   Clear
2:53 AM 30.9 °F 21.2 °F -0.9 °F 26% 29.92 in 10.0 mi NNE 12.7 mph 25.3 mph N/A   Clear
3:53 AM 30.9 °F 19.1 °F -2.0 °F 24% 29.92 in 10.0 mi NNE 18.4 mph 24.2 mph N/A   Clear
4:53 AM 30.0 °F 18.3 °F -2.0 °F 25% 29.92 in 10.0 mi NNE 17.3 mph 26.5 mph N/A   Clear
5:53 AM 28.9 °F 17.3 °F -2.0 °F 26% 29.92 in 10.0 mi NNE 16.1 mph 27.6 mph N/A   Clear
6:53 AM 28.9 °F 14.8 °F -2.9 °F 25% 29.91 in 10.0 mi NNE 24.2 mph 35.7 mph N/A   Clear
7:53 AM 28.9 °F 15.1 °F -2.9 °F 25% 29.91 in 10.0 mi NNE 23.0 mph 32.2 mph N/A   Clear
8:53 AM 30.0 °F 17.5 °F -2.9 °F 24% 29.90 in 10.0 mi NNE 19.6 mph 29.9 mph N/A   Clear
9:53 AM 33.1 °F 20.9 °F -2.0 °F 22% 29.90 in 10.0 mi NE 21.9 mph 29.9 mph N/A   Clear
10:53 AM 35.1 °F 23.5 °F -2.0 °F 21% 29.89 in 10.0 mi NE 21.9 mph - N/A   Clear
11:53 AM 36.0 °F 23.7 °F -2.0 °F 20% 29.88 in 10.0 mi NE 26.5 mph 33.4 mph N/A   Clear
12:53 PM 37.9 °F 27.9 °F -0.0 °F 20% 29.87 in 10.0 mi NE 19.6 mph 27.6 mph N/A   Clear
1:53 PM 39.0 °F 29.6 °F 1.9 °F 21% 29.84 in 10.0 mi NNE 18.4 mph 26.5 mph N/A   Clear
2:53 PM 41.0 °F 33.9 °F -0.0 °F 18% 29.83 in 10.0 mi NNE 12.7 mph 21.9 mph N/A   Clear
3:53 PM 41.0 °F 33.1 °F -0.0 °F 18% 29.80 in 10.0 mi NNE 15.0 mph 27.6 mph N/A   Clear
4:53 PM 42.1 °F 33.9 °F -0.0 °F 17% 29.77 in 10.0 mi NNE 17.3 mph 29.9 mph N/A   Clear
5:53 PM 41.0 °F 33.1 °F -0.9 °F 17% 29.77 in 10.0 mi NNE 15.0 mph 20.7 mph N/A   Clear
6:53 PM 39.0 °F 31.0 °F -0.0 °F 19% 29.77 in 10.0 mi NNE 13.8 mph 19.6 mph N/A   Clear
7:53 PM 37.0 °F 30.4 °F 1.9 °F 23% 29.77 in 10.0 mi NNE 9.2 mph - N/A   Clear
8:53 PM 36.0 °F 28.5 °F 1.9 °F 24% 29.77 in 10.0 mi NE 10.4 mph - N/A   Clear
9:53 PM 36.0 °F 26.7 °F -0.0 °F 22% 29.76 in 10.0 mi NE 15.0 mph - N/A   Clear
10:53 PM 36.0 °F 27.5 °F 1.0 °F 23% 29.76 in 10.0 mi NE 12.7 mph - N/A   Clear
11:53 PM 36.0 °F 27.1 °F -0.0 °F 22% 29.76 in 10.0 mi NE 13.8 mph - N/A   Clear